When you browse on this site, cookies collect data to enhance your experience and personalize the content and advertising you see.
Visit our Privacy Policy to learn more. By continuing to use the site, you agree to this use of cookies and data.
  • In Portugal
  • List of Countries
  • For 7 days
  • Water Temperature
  • Satellite Maps
  • Weather Map
  • Weather Widgets
  • user-avatar
    Login

    Hourly Weather Ravda

    Today, 27 May, Monday

    Time Temperature Precipitation Wind Pressure Humidity
    00:00 +19°C° 0 mm 1 mps 762 mmHg 84%
    01:00 +18°C° 0 mm 1 mps 762 mmHg 85%
    02:00 +18°C° 0 mm 1 mps 762 mmHg 86%
    03:00 +18°C° 0 mm 1 mps 762 mmHg 86%
    04:00 +18°C° 0 mm 1 mps 762 mmHg 86%
    05:00 +18°C° 0 mm 1 mps 762 mmHg 87%
    06:00 +20°C° 0 mm 1 mps 762 mmHg 81%
    07:00 +22°C° 0 mm 1 mps 762 mmHg 75%
    08:00 +24°C° 0 mm 2 mps 762 mmHg 69%
    09:00 +25°C° 0 mm 2 mps 762 mmHg 65%
    10:00 +25°C° 0 mm 3 mps 762 mmHg 61%
    11:00 +26°C° 0 mm 4 mps 762 mmHg 57%
    12:00 +26°C° 0 mm 4 mps 762 mmHg 57%
    13:00 +26°C° 0 mm 5 mps 762 mmHg 58%
    14:00 +26°C° 0 mm 5 mps 761 mmHg 58%
    15:00 +25°C° 0 mm 5 mps 761 mmHg 61%
    16:00 +23°C° 0 mm 5 mps 761 mmHg 64%
    17:00 +22°C° 0 mm 4 mps 761 mmHg 68%
    18:00 +21°C° 0 mm 4 mps 760 mmHg 75%
    19:00 +19°C° 0 mm 3 mps 760 mmHg 83%
    20:00 +18°C° 0 mm 3 mps 760 mmHg 90%
    21:00 +17°C° 0 mm 3 mps 760 mmHg 91%
    22:00 +17°C° 0 mm 2 mps 761 mmHg 92%
    23:00 +17°C° 0 mm 2 mps 761 mmHg 93%

    Tomorrow, 28 May, Tuesday

    Time Temperature Precipitation Wind Pressure Humidity
    00:00 +17°C° 0 mm 2 mps 760 mmHg 93%
    01:00 +17°C° 0 mm 2 mps 760 mmHg 94%
    02:00 +17°C° 0 mm 2 mps 760 mmHg 94%
    03:00 +16°C° 0 mm 2 mps 759 mmHg 94%
    04:00 +16°C° 0 mm 2 mps 759 mmHg 94%
    05:00 +16°C° 0 mm 1 mps 759 mmHg 95%
    06:00 +18°C° 0 mm 2 mps 759 mmHg 88%
    07:00 +20°C° 0 mm 2 mps 759 mmHg 82%
    08:00 +21°C° 0 mm 2 mps 759 mmHg 75%
    09:00 +24°C° 0 mm 2 mps 759 mmHg 71%
    10:00 +25°C° 0 mm 3 mps 758 mmHg 66%
    11:00 +27°C° 0 mm 3 mps 758 mmHg 62%
    12:00 +27°C° 0 mm 4 mps 758 mmHg 62%
    13:00 +27°C° 0 mm 4 mps 758 mmHg 62%
    14:00 +27°C° 0 mm 5 mps 757 mmHg 61%
    15:00 +27°C° 0 mm 5 mps 757 mmHg 63%
    16:00 +26°C° 0 mm 4 mps 756 mmHg 66%
    17:00 +26°C° 0 mm 4 mps 756 mmHg 68%
    18:00 +23°C° 0 mm 4 mps 756 mmHg 73%
    19:00 +22°C° 0 mm 4 mps 756 mmHg 78%
    20:00 +20°C° 0 mm 3 mps 756 mmHg 83%
    21:00 +20°C° 0 mm 3 mps 756 mmHg 82%
    22:00 +20°C° 0 mm 3 mps 756 mmHg 81%
    23:00 +19°C° 0 mm 3 mps 757 mmHg 79%

    Day after tomorrow, 29 May, Wednesday

    Time Temperature Precipitation Wind Pressure Humidity
    00:00 +19°C° 0 mm 3 mps 757 mmHg 77%
    01:00 +18°C° 0 mm 2 mps 757 mmHg 75%
    02:00 +17°C° 0 mm 2 mps 757 mmHg 73%
    03:00 +17°C° 0 mm 2 mps 757 mmHg 77%
    04:00 +16°C° 0 mm 2 mps 757 mmHg 81%
    05:00 +16°C° 0 mm 3 mps 757 mmHg 85%
    06:00 +18°C° 0 mm 3 mps 757 mmHg 80%
    07:00 +20°C° 0 mm 3 mps 757 mmHg 75%
    08:00 +22°C° 0 mm 3 mps 757 mmHg 71%
    09:00 +25°C° 0 mm 3 mps 757 mmHg 64%
    10:00 +27°C° 0 mm 3 mps 757 mmHg 58%
    11:00 +29°C° 0 mm 3 mps 758 mmHg 52%
    12:00 +30°C° 0 mm 3 mps 757 mmHg 50%
    13:00 +30°C° 0 mm 3 mps 757 mmHg 48%
    14:00 +31°C° 0 mm 3 mps 757 mmHg 46%
    15:00 +30°C° 0 mm 3 mps 757 mmHg 49%
    16:00 +30°C° 0 mm 3 mps 757 mmHg 52%
    17:00 +30°C° 0 mm 3 mps 757 mmHg 55%
    18:00 +28°C° 0 mm 3 mps 757 mmHg 60%
    19:00 +26°C° 0 mm 3 mps 757 mmHg 64%
    20:00 +23°C° 0 mm 4 mps 758 mmHg 68%
    21:00 +22°C° 0 mm 3 mps 758 mmHg 71%
    22:00 +20°C° 0 mm 2 mps 758 mmHg 74%
    23:00 +19°C° 0 mm 2 mps 758 mmHg 76%

    30 May, Thursday

    Time Temperature Precipitation Wind Pressure Humidity
    00:00 +19°C° 0 mm 2 mps 758 mmHg 78%
    01:00 +18°C° 0 mm 2 mps 758 mmHg 80%
    02:00 +18°C° 0 mm 1 mps 759 mmHg 82%
    03:00 +18°C° 0 mm 1 mps 759 mmHg 84%
    04:00 +17°C° 0 mm 2 mps 759 mmHg 85%
    05:00 +17°C° 0 mm 2 mps 759 mmHg 87%
    06:00 +19°C° 0 mm 2 mps 759 mmHg 82%
    07:00 +21°C° 0 mm 2 mps 759 mmHg 76%
    08:00 +24°C° 0 mm 2 mps 759 mmHg 71%
    09:00 +26°C° 0 mm 1 mps 759 mmHg 66%
    10:00 +27°C° 0 mm 1 mps 759 mmHg 61%
    11:00 +29°C° 0 mm 1 mps 759 mmHg 56%
    12:00 +30°C° 0 mm 1 mps 759 mmHg 55%
    13:00 +30°C° 0 mm 2 mps 759 mmHg 55%
    14:00 +30°C° 0 mm 3 mps 758 mmHg 54%
    15:00 +29°C° 0.2 mm 3 mps 758 mmHg 57%
    16:00 +28°C° 0.2 mm 3 mps 758 mmHg 61%
    17:00 +27°C° 0.2 mm 3 mps 758 mmHg 64%
    18:00 +26°C° 0.1 mm 2 mps 758 mmHg 70%
    19:00 +24°C° 0.1 mm 2 mps 758 mmHg 77%
    20:00 +21°C° 0.1 mm 2 mps 759 mmHg 83%
    21:00 +21°C° 0.1 mm 2 mps 759 mmHg 85%
    22:00 +21°C° 0.1 mm 1 mps 759 mmHg 87%
    23:00 +21°C° 0.1 mm 1 mps 759 mmHg 89%

    31 May, Friday

    Time Temperature Precipitation Wind Pressure Humidity
    00:00 +21°C° 0 mm 1 mps 759 mmHg 90%
    01:00 +20°C° 0 mm 1 mps 759 mmHg 91%
    02:00 +20°C° 0 mm 1 mps 759 mmHg 92%
    03:00 +20°C° 0 mm 1 mps 759 mmHg 92%
    04:00 +19°C° 0 mm 2 mps 759 mmHg 93%
    05:00 +18°C° 0 mm 2 mps 759 mmHg 94%
    06:00 +20°C° 0 mm 3 mps 759 mmHg 89%
    07:00 +21°C° 0 mm 3 mps 759 mmHg 84%
    08:00 +22°C° 0 mm 4 mps 759 mmHg 78%
    09:00 +23°C° 0 mm 4 mps 759 mmHg 75%
    10:00 +25°C° 0 mm 4 mps 759 mmHg 72%
    11:00 +26°C° 0 mm 4 mps 759 mmHg 69%
    12:00 +26°C° 0 mm 4 mps 759 mmHg 67%
    13:00 +27°C° 0 mm 3 mps 758 mmHg 65%
    14:00 +27°C° 0 mm 3 mps 758 mmHg 63%
    15:00 +27°C° 0 mm 3 mps 758 mmHg 64%
    16:00 +27°C° 0 mm 3 mps 758 mmHg 64%
    17:00 +27°C° 0 mm 2 mps 758 mmHg 65%
    18:00 +25°C° 0 mm 2 mps 758 mmHg 71%
    19:00 +23°C° 0 mm 2 mps 758 mmHg 78%
    20:00 +21°C° 0 mm 1 mps 758 mmHg 84%
    21:00 +19°C° 0.1 mm 2 mps 758 mmHg 87%
    22:00 +19°C° 0.1 mm 2 mps 758 mmHg 90%
    23:00 +18°C° 0.1 mm 3 mps 758 mmHg 92%

    1 June, Saturday

    Time Temperature Precipitation Wind Pressure Humidity
    00:00 +18°C° 0 mm 3 mps 758 mmHg 93%
    01:00 +17°C° 0 mm 3 mps 758 mmHg 93%
    02:00 +17°C° 0 mm 4 mps 758 mmHg 94%
    03:00 +17°C° 0 mm 4 mps 758 mmHg 93%
    04:00 +15°C° 0 mm 4 mps 758 mmHg 93%
    05:00 +15°C° 0 mm 4 mps 758 mmHg 93%
    06:00 +18°C° 0 mm 4 mps 758 mmHg 88%
    07:00 +19°C° 0 mm 4 mps 758 mmHg 83%
    08:00 +21°C° 0 mm 4 mps 758 mmHg 79%
    09:00 +24°C° 0 mm 3 mps 758 mmHg 73%
    10:00 +25°C° 0 mm 3 mps 758 mmHg 68%
    11:00 +27°C° 0 mm 2 mps 758 mmHg 62%
    12:00 +28°C° 0.2 mm 2 mps 757 mmHg 61%
    13:00 +28°C° 0.2 mm 2 mps 757 mmHg 59%
    14:00 +28°C° 0.2 mm 2 mps 757 mmHg 58%
    15:00 +28°C° 0.7 mm 2 mps 757 mmHg 60%
    16:00 +27°C° 0.7 mm 2 mps 757 mmHg 62%
    17:00 +27°C° 0.7 mm 2 mps 756 mmHg 65%
    18:00 +25°C° 0.3 mm 1 mps 756 mmHg 71%
    19:00 +23°C° 0.3 mm 1 mps 756 mmHg 78%
    20:00 +21°C° 0.3 mm 1 mps 757 mmHg 85%
    21:00 +21°C° 0.5 mm 1 mps 757 mmHg 86%
    22:00 +20°C° 0.5 mm 1 mps 757 mmHg 88%
    23:00 +19°C° 0.5 mm 2 mps 757 mmHg 90%
    Show more